Regional Weather Roundup
Issued by NWS

Home | Current Version | Previous Version | Text Only | Print | Product List | Glossary Off
Versions: 1 2 3 4 5 6 7 8 9 10 11 12 13 14 15 16 17 18 19 20 21 22 23 24 25 26 27 28 29 30 31 32 33 34 35 36 37 38 39 40 41 42 43 44 45 46 47 48 49 50

000
ASUS43 KOAX 291010
RWRNE
OMARWRNE ALL

WEATHER ROUNDUP FOR NEBRASKA
NATIONAL WEATHER SERVICE OMAHA NE
500 AM CDT FRI MAY 29 2015

NOTES: SATELLITE DATA IS BEING USED TO AUGMENT CLOUD COVER ABOVE
       12000 FEET.
       "FAIR" INDICATES FEW OR NO CLOUDS BELOW 12,000 FEET WITH NO
       SIGNIFICANT WEATHER AND/OR OBSTRUCTIONS TO VISIBILITY.

  * THESE STATIONS DO NOT REPORT WEATHER SUCH AS RAIN...SNOW OR FOG.

NEZ001>004-019>022-054>056-291100-
NEBRASKA PANHANDLE

CITY           SKY/WX    TMP DP  RH WIND       PRES   REMARKS
SCOTTSBLUFF    CLEAR     51  49  92 W7        30.08R
ALLIANCE       PTCLDY    50  48  93 W7        30.04S
CHADRON        MOCLDY    55  52  89 NW5       30.04S
KIMBALL          N/A    N/A N/A N/A MISG        N/A
SIDNEY         PTCLDY    50  48  93 NW12      30.07S
$$

NEZ057>060-069>072-079>082-291100-
SOUTHWEST NEBRASKA

CITY           SKY/WX    TMP DP  RH WIND       PRES   REMARKS
NORTH PLATTE   PTCLDY    51  49  92 NW8       29.98S
IMPERIAL       MOCLDY    56  51  84 NW6       30.01R
LEXINGTON      MOCLDY    56  54  94 W10       29.95R
MCCOOK         PTCLDY    55  52  89 NW14      29.97R
OGALLALA       CLOUDY    55  53  94 W6        30.02R
$$

NEZ005>010-023>029-035>040-094-291100-
NORTH CENTRAL NEBRASKA

CITY           SKY/WX    TMP DP  RH WIND       PRES   REMARKS
VALENTINE      CLOUDY    57  54  89 W9        29.94S
AINSWORTH      MOCLDY    57  55  94 W8        29.92F
BROKEN BOW     CLOUDY    59  56  89 NW9       29.94R
O`NEILL        CLOUDY    60  58  96 CALM      29.89F
ORD            CLOUDY    57  55  93 NW6       29.89R
THEDFORD       PTCLDY    55  53  94 W7        29.97S
$$

NEZ041-046>049-061>064-073>077-083>087-291100-
SOUTH CENTRAL NEBRASKA

CITY           SKY/WX    TMP DP  RH WIND       PRES   REMARKS
GRAND ISLAND   CLOUDY    59  57  93 SW6       29.90S
AURORA         MOCLDY    61  61 100 SW6       29.89S
HASTINGS       MOCLDY    59  56  89 W8        29.90F
HEBRON         CLOUDY    60  58  91 CALM      29.93R
HOLDREGE       CLOUDY    58  52  79 W9        29.92S
KEARNEY *      CLOUDY    57  52  82 S5        29.91S
YORK           CLOUDY    63  59  88 CALM      29.88F
$$

NEZ011>018-030>034-042>045-291100-
NORTHEAST NEBRASKA

CITY           SKY/WX    TMP DP  RH WIND       PRES   REMARKS
NORFOLK        CLOUDY    63  59  87 W9        29.84F
ALBION         LGT RAIN  61  58  87 CALM      29.88R
BLAIR          MOCLDY    64  61  91 S9        29.87R
COLUMBUS *     CLOUDY    63  55  77 SW6       29.88R
FREMONT        CLOUDY    65  64  94 SE10      29.86R
TEKAMAH        CLOUDY    65  63  93 SE9       29.83F
WAYNE          CLOUDY    64  60  89 W6        29.83F
$$

NEZ050>053-065>068-078-088>093-291100-
SOUTHEAST NEBRASKA

CITY           SKY/WX    TMP DP  RH WIND       PRES   REMARKS
LINCOLN        CLOUDY    64  63  96 SE8       29.88S
OMAHA EPPLEY   CLOUDY    66  63  90 S13       29.87F
BEATRICE       CLOUDY    61  59  92 CALM      29.91R
FALLS CITY     MOCLDY    64  62  93 SE6       29.89S
NEBRASKA CITY  CLOUDY    64  64  98 S8        29.89R
PLATTSMOUTH    CLOUDY    63  61  93 S8        29.89R
$$

NEZ044-045-051>053-067-291100-
OMAHA AREA

CITY           SKY/WX    TMP DP  RH WIND       PRES   REMARKS
OMAHA EPPLEY   CLOUDY    66  63  90 S13       29.87F
BLAIR          MOCLDY    64  61  91 S9        29.87R
FREMONT        CLOUDY    65  64  94 SE10      29.86R
MILLARD        CLOUDY    65  63  91 SE8       29.88R
OFFUTT AFB     CLOUDY    65  63  93 S8        29.88S
PLATTSMOUTH    CLOUDY    63  61  93 S8        29.89R
WAHOO          FAIR      64  63  94 S9        29.87R
$$


USA.gov is the U.S. government's official web portal to all federal, state and local government web resources and services.